THORAD AGENA D DEB, 5025

Orbit data source: Space-Track

THORAD AGENA D DEB, 5025 is space debris in SSO originally from a launch on Wed, 08 Apr 1970 UTC launched from the Air Force Western Test Range (AFWTR). Debris objects in space refer to the collection of defunct objects orbiting the Earth. Examples of debris include non-operational satellites, rocket bodies, and fragments generated from explosions, collisions, or faulty payload assembly.

Loading next visibility...
Identifier
5025, 1970-025HZ
Orbit
SSO
Country
Flag of USUS
Related business
Manufacturer
Unknown
Mission
Spacecraft
Bus & Motor
Unknown
Mass
Unknown
Launch date (UTC)
1970-04-08 (56 years ago)
Launch vehicle
Unknown
Launch site
Air Force Western Test Range (AFWTR)
Object type
Payload
Rocket body
Debris
Shape & HBR
Unknown shape, 0.1 m
Radar Cross Section
Medium (>0.1 m² and <1 m²)

Expand to show TLE details & history
Last TLE update: 22 hours ago

TLE from 22 hours ago
0 THORAD AGENA D DEB
1 05025U 70025HZ  26256.42237362  .00000175  00000-0  33997-3 0  9993
2 05025 100.0615 325.1562 0044867 157.1368 265.7580 13.50870658771316
Epoch: 2026-09-13T10:08Z
TLE epoch observation values (Epoch: 2026-09-13T10:08:13.080Z)
Latitude
60.83614°
Longitude
162.24397°
Altitude
1,081.961 km
Speed
7.316 km/s
True Right ascension
20h 26m 51s
True Declination
60° 41' 45"
Sunlit
Object was in daylight at epoch
Visualization orbit readout
Latitude
Unknown
Longitude
Unknown
Altitude
Unknown
Speed
Unknown
Apparent Right ascension
Unknown
Apparent Declination
Unknown
Sunlit
N/A
Visualization observer readout
Local Sidereal Time
00:43:36
Azimuth
Unknown
Elevation
Unknown
Doppler factor
Unknown
Orbital elements
Apogee altitude
1,099.777 km
Perigee altitude
1,032.975 km
Semi-major axis
7,444.513 km
Eccentricity
0.00449
Inclination
100.0615°
RAAN
325.1562°
Arg. of periapsis
157.1368°
True anomaly
265.24549°
Mean anomaly
265.758°
Eccentric anomaly
265.50172°
Mean motion
3.379 °/min
Orbital period
106.54 mins
BSTAR
0.00033997
Loading maneuver chart data...
Computing Atmospheric mass density...

Documentation

Showing up to 5 results
|